Saturday, November 29, 2014
05:06 UTC
  |  Log In   |  Register Free
Airport Search:

Lawrence Smith Memorial Airport
(KLRY)

Lawrence Smith Memorial Airport Diagram
No Airport Diagram Available

FAA data valid effective November 13, 2014 - January 08, 2015 (unless otherwise noted).

 
 
 
 
 
 
 
 
 
 
 
 
 
 

Current Aviation Weather for Lawrence Smith Memorial Airport (KLRY)

METAR data is unavailable for LRY. The nearest METAR location is at KLXT (21 nm NW from LRY).

The most recent METAR observation for KLXT was updated at: 0333
METAR Summary (Translated METAR)
KLXT
290253Z AUTO 21010KT 10SM CLR 11/03 A2978 RMK AO2 SLP087 T01110028 56010 TSNO
(21 nm NW from KLRY)
KOJC
290253Z 20011KT 10SM CLR 11/02 A2977 RMK AO2 SLP084 T01110022 56008
(23.3 nm NW from KLRY)
TAF
No TAF information found within 50 nm of KLXT
  Airport Weather Conditions for KLRY

Current weather conditions are
not available for LRY


The nearest NOAA weather station
is at LXT, (21 nm NW from LRY)
  
 Current Weather at LXT
53° F
Fair
Southwest winds at 12.7 mph
LXT NOAA Radar

Pressure: 29.76 in
Humidity: 57%
Wind: Southwest at 12.7 MPH (11 KT)
Dew Point: 37.9°F
Visibility: 10.00 mi


Airport Weather Forecast for KLRY

Translated METAR and TAF for KLXT
Translated METAR for KLXT (0501 UTC 29 November 2014)
found at http://aviationweather.gov/adds/metars/
 
METAR text: KLXT 290453Z AUTO 22015G21KT 10SM CLR 12/04 A2975 RMK AO2 SLP075 T01220039 TSNO
Conditions at: KLXT (LEES SUMMIT MUNI, MO, US) observed 0453 UTC 29 November 2014
Temperature: 12.2°C (54°F)
Dewpoint: 3.9°C (39°F) [RH = 57%]
Pressure (altimeter): 29.75 inches Hg (1007.5 mb)
[Sea-level pressure: 1007.5 mb]
Winds: from the SW (220 degrees) at 17 MPH (15 knots; 7.8 m/s)
gusting to 24 MPH (21 knots; 10.9 m/s)
Visibility: 10 or more miles (16+ km)
Ceiling: at least 12,000 feet AGL
Clouds: sky clear below 12,000 feet AGL
Weather: automated observation with no human augmentation;
there may or may not be significant weather present at this time
Translated TAF for KLXT

There is no translated TAF available for this airport

Find All Airport Services Find A Hotel Find A Rental Car Find A Golf Course Find A Restaurant $100 Hamburger



FBO's on the Field
FBO Company Facility Photos Services Transportation Aviation Fuel Prices: Prices include tax
Catering Weather Repair Courtesy Rental Type 100LL JetA JetA+ MOGAS 8087
 
City of Harrisonville

This FBO has not yet been rated
FS:Phillips 66
Last Updated: Oct-23
Login to update fuel prices
SS:
Contact City of HarrisonvilleMore FBO Information
 
Add another FBO Facility Photos Catering Weather Repair Courtesy Rental Type 100LL JetA JetA+ MOGAS 8087
Services Transportation Aviation Fuel Prices: Prices include tax


model-print
model-print
model-print
model-print